This demonstration page uses our WeatherBlox Daily Observations layout. Learn more.

Left ArrowRight Arrow

41.86663, -103.66717

Hourly Observations for February 17, 2019

Temp ( °F °C ) Dew Point ( °F °C ) Humidity (%) Winds ( mph kmh ) Pressure ( in mb ) Visibility ( mi km ) Precip ( " mm )
12:53 am 00:53 Cloudy 21 -6.1 15 -9.4 78 78 N 12 19 29.87 1012 10 16 N/A
1:19 am 01:19 Cloudy 19 -7.2 13 -10.6 77 77 N 9 15 30.00 1016 10 16 N/A
1:53 am 01:53 Cloudy 17 -8.3 12 -11.1 80 80 N 9 15 29.87 1012 10 16 N/A
2:53 am 02:53 Mostly Cloudy 15 -9.4 10 -12.2 80 80 NNW 9 15 29.88 1012 10 16 N/A
3:53 am 03:53 Cloudy 16 -8.9 10 -12.2 77 77 NW 14 22 29.91 1013 10 16 N/A
4:53 am 04:53 Cloudy 15 -9.4 8 -13.3 74 74 NW 15 24 29.95 1014 10 16 N/A
5:22 am 05:22 Cloudy 16 -9 7 -14 67 67 NW 16 26 30.12 1020 10 16 N/A
5:53 am 05:53 Cloudy 13 -10.6 6 -14.4 74 74 NNW 17 28 29.99 1016 10 16 N/A
6:15 am 06:15 Cloudy 13 -10.6 5 -15 70 70 NNW 16 26 30.17 1022 10 16 N/A
6:53 am 06:53 Mostly Cloudy 11 -11.7 4 -15.6 73 73 NNW 17 28 30.04 1017 10 16 N/A
7:53 am 07:53 Cloudy 11 -11.7 2 -16.7 67 67 NNW 18 30 30.08 1019 10 16 N/A
8:53 am 08:53 Cloudy 12 -11.1 2 -16.7 64 64 NNW 20 31 30.11 1020 10 16 N/A
9:53 am 09:53 Cloudy 14 -10 2 -16.7 58 58 NNW 17 28 30.11 1020 10 16 N/A
10:53 am 10:53 Cloudy 16 -8.9 3 -16.1 56 56 NNW 14 22 30.12 1020 10 16 N/A
11:53 am 11:53 Cloudy 18 -7.8 3 -16.1 52 52 NNW 16 26 30.11 1020 10 16 N/A
12:53 pm 12:53 Partly Cloudy 21 -6.1 4 -15.6 47 47 NNW 18 30 30.11 1020 10 16 N/A
1:53 pm 13:53 Sunny 22 -5.6 5 -15 48 48 N 20 31 30.13 1020 10 16 N/A
2:53 pm 14:53 Partly Cloudy 21 -6.1 3 -16.1 45 45 NNW 17 28 30.16 1021 10 16 N/A
3:53 pm 15:53 Partly Cloudy 19 -7.2 3 -16.1 49 49 NNW 20 31 30.18 1022 10 16 N/A
4:53 pm 16:53 Sunny 16 -8.9 2 -16.7 54 54 N 18 30 30.22 1023 10 16 N/A
5:53 pm 17:53 Clear 11 -11.7 N/A 61 61 N 9 15 30.29 1026 10 16 N/A
6:53 pm 18:53 Clear 8 -13.3 -2 -18.9 63 63 N 10 17 30.34 1028 10 16 N/A
7:53 pm 19:53 Clear 5 -15 -3 -19.4 69 69 N 8 13 30.38 1029 10 16 N/A
8:53 pm 20:53 Clear 3 -16.1 -3 -19.4 76 76 NNE 9 15 30.40 1030 10 16 N/A
9:53 pm 21:53 Clear 3 -16.1 -4 -20 72 72 N 9 15 30.41 1030 10 16 N/A
10:53 pm 22:53 Clear 2 -16.7 -4 -20 76 76 NW 5 7 30.43 1031 10 16 N/A
11:53 pm 23:53 Clear N/A -5 -20.6 79 79 NW 5 7 30.45 1031 10 16 N/A

Powered by AerisWeather